This demonstration page uses our WeatherBlox Daily Observations layout. Learn more.

38.89511, -77.03637

Hourly Observations for September 24, 2017

Temp ( °F °C ) Dew Point ( °F °C ) Humidity (%) Winds ( mph kmh ) Pressure ( in mb ) Visibility ( mi km ) Precip ( " mm )
12:52 am 00:52 Partly Cloudy 71 21.7 62 16.7 73 73 SW 3 6 30.06 1018 10 16.09344 0 0
1:52 am 01:52 Mostly Cloudy 70 21.1 63 17.2 79 79 Calm 30.06 1018 10 16.09344 0 0
2:52 am 02:52 Mostly Cloudy 70 21.1 63 17.2 79 79 Calm 30.06 1018 10 16.09344 0 0
3:52 am 03:52 Mostly Cloudy 69 20.6 62 16.7 78 78 Calm 30.06 1018 10 16.09344 0 0
4:52 am 04:52 Mostly Cloudy 68 20 61 16.1 78 78 N 3 6 30.06 1018 10 16.09344 0 0
5:52 am 05:52 Mostly Cloudy 67 19.4 61 16.1 81 81 N 9 15 30.06 1018 10 16.09344 0 0
6:52 am 06:52 Partly Cloudy 67 19.4 61 16.1 81 81 NNW 6 9 30.06 1018 10 16.09344 0 0
7:52 am 07:52 Partly Cloudy 70 21.1 62 16.7 76 76 NNW 5 7 30.09 1019 10 16.09344 0 0
8:52 am 08:52 Mostly Sunny 74 23.3 62 16.7 67 67 N 7 11 30.09 1019 10 16.09344 0 0
9:52 am 09:52 Mostly Sunny 78 25.6 64 17.8 62 62 NW 7 11 30.09 1019 10 16.09344 0 0
10:52 am 10:52 Partly Cloudy 83 28.3 65 18.3 55 55 NE 10 17 30.09 1019 10 16.09344 0 0
11:52 am 11:52 Partly Cloudy 86 30 65 18.3 49 49 ENE 5 7 30.09 1019 10 16.09344 0 0
12:52 pm 12:52 Partly Cloudy 89 31.7 65 18.3 45 45 Calm 30.06 1018 10 16.09344 0 0
1:52 pm 13:52 Partly Cloudy 90 32.2 65 18.3 44 44 E 6 9 30.06 1018 10 16.09344 0 0
2:52 pm 14:52 Partly Cloudy 91 32.8 65 18.3 42 42 NE 7 11 30.03 1017 10 16.09344 0 0
3:52 pm 15:52 Mostly Cloudy 91 32.8 65 18.3 42 42 E 8 13 30.03 1017 10 16.09344 0 0
4:52 pm 16:52 Mostly Cloudy 90 32.2 64 17.8 42 42 NE 8 13 30.03 1017 10 16.09344 0 0
5:52 pm 17:52 Partly Cloudy 87 30.6 64 17.8 46 46 ENE 8 13 30 1016 10 16.09344 0 0
6:52 pm 18:52 Partly Cloudy 84 28.9 67 19.4 57 57 ESE 7 11 30.03 1017 10 16.09344 0 0
7:52 pm 19:52 Partly Cloudy 82 27.8 66 18.9 58 58 S 5 7 30.03 1017 10 16.09344 0 0
8:52 pm 20:52 Mostly Clear 80 26.7 70 21.1 71 71 Calm 30.03 1017 10 16.09344 0 0
9:52 pm 21:52 Mostly Clear 78 25.6 68 20 71 71 N 5 7 30.03 1017 10 16.09344 0 0
10:52 pm 22:52 Mostly Clear 78 25.6 71 21.7 79 79 Calm 30.03 1017 10 16.09344 0 0
11:52 pm 23:52 Partly Cloudy 75 23.9 70 21.1 84 84 N 5 7 30.03 1017 10 16.09344 0 0

Powered by AerisWeather